TimeCDT,TemperatureF,Dew PointF,Humidity,Sea Level PressureIn,VisibilityMPH,Wind Direction,Wind SpeedMPH,Gust SpeedMPH,PrecipitationIn,Events,Conditions,WindDirDegrees,DateUTC
12:15 AM,77.5,72.3,84,29.94,10.0,SSW,6.9,-,N/A,,Clear,200,2013-08-30 05:15:00
12:35 AM,78.3,72.5,82,29.94,10.0,SSW,9.2,-,N/A,,Clear,210,2013-08-30 05:35:00
12:55 AM,77.9,72.0,82,29.94,10.0,SSW,6.9,-,N/A,,Clear,210,2013-08-30 05:55:00
1:15 AM,77.5,71.2,81,29.94,10.0,SW,8.1,-,N/A,,Clear,220,2013-08-30 06:15:00
1:35 AM,79.0,70.2,74,29.94,10.0,SW,9.2,-,N/A,,Clear,220,2013-08-30 06:35:00
1:55 AM,77.9,70.0,76,29.94,10.0,SW,9.2,-,N/A,,Clear,230,2013-08-30 06:55:00
2:15 AM,77.0,69.8,78,29.94,10.0,SW,9.2,-,N/A,,Clear,230,2013-08-30 07:15:00
2:35 AM,76.5,69.4,79,29.93,10.0,SW,9.2,-,N/A,,Clear,220,2013-08-30 07:35:00
2:55 AM,76.1,69.1,79,29.93,10.0,SW,9.2,-,N/A,,Clear,230,2013-08-30 07:55:00
3:15 AM,76.3,68.7,77,29.93,10.0,SW,9.2,-,N/A,,Clear,230,2013-08-30 08:15:00
3:35 AM,76.1,68.4,77,29.93,10.0,SW,10.4,-,N/A,,Clear,230,2013-08-30 08:35:00
3:55 AM,76.1,68.2,76,29.93,10.0,SW,9.2,-,N/A,,Clear,230,2013-08-30 08:55:00
4:15 AM,75.2,68.0,78,29.93,10.0,SW,8.1,-,N/A,,Clear,220,2013-08-30 09:15:00
4:35 AM,74.8,67.8,79,29.93,10.0,SW,8.1,-,N/A,,Clear,220,2013-08-30 09:35:00
4:55 AM,75.2,67.6,77,29.92,10.0,SW,8.1,-,N/A,,Clear,220,2013-08-30 09:55:00
5:15 AM,75.0,67.5,77,29.92,10.0,SW,8.1,-,N/A,,Clear,220,2013-08-30 10:15:00
5:35 AM,74.3,67.5,79,29.92,10.0,SW,9.2,-,N/A,,Clear,220,2013-08-30 10:35:00
5:55 AM,73.6,67.3,81,29.92,10.0,SW,9.2,-,N/A,,Clear,220,2013-08-30 10:55:00
9:15 AM,81.0,66.7,62,29.92,10.0,SW,9.2,-,N/A,,Clear,220,2013-08-30 14:15:00
9:35 AM,82.4,66.7,59,29.93,10.0,SW,9.2,-,N/A,,Clear,230,2013-08-30 14:35:00
9:55 AM,84.0,66.6,56,29.93,10.0,SW,8.1,-,N/A,,Clear,230,2013-08-30 14:55:00
10:15 AM,85.6,67.3,54,29.93,10.0,SW,5.8,-,N/A,,Clear,220,2013-08-30 15:15:00
10:35 AM,87.3,66.9,51,29.93,10.0,SW,6.9,-,N/A,,Clear,220,2013-08-30 15:35:00
10:55 AM,88.0,66.4,49,29.93,10.0,SW,6.9,-,N/A,,Clear,220,2013-08-30 15:55:00
11:15 AM,88.7,66.4,47,29.92,10.0,SSW,9.2,-,N/A,,Clear,210,2013-08-30 16:15:00
11:35 AM,89.8,66.6,46,29.92,10.0,SW,6.9,-,N/A,,Clear,230,2013-08-30 16:35:00
11:55 AM,91.4,66.4,44,29.92,10.0,SW,8.1,-,N/A,,Clear,230,2013-08-30 16:55:00
12:15 PM,92.3,65.7,41,29.91,10.0,WSW,8.1,-,N/A,,Clear,240,2013-08-30 17:15:00
12:35 PM,92.7,66.0,41,29.91,10.0,WSW,6.9,-,N/A,,Clear,240,2013-08-30 17:35:00
12:55 PM,93.6,66.0,40,29.90,10.0,West,5.8,-,N/A,,Clear,260,2013-08-30 17:55:00
1:15 PM,94.6,66.2,39,29.90,10.0,SW,8.1,-,N/A,,Clear,230,2013-08-30 18:15:00
1:35 PM,95.4,66.0,38,29.89,10.0,SW,5.8,-,N/A,,Clear,230,2013-08-30 18:35:00
1:55 PM,96.3,66.2,37,29.89,10.0,SW,5.8,-,N/A,,Clear,230,2013-08-30 18:55:00
2:15 PM,96.8,65.3,35,29.89,10.0,SSW,10.4,-,N/A,,Clear,210,2013-08-30 19:15:00
2:35 PM,98.1,63.9,32,29.88,10.0,SW,13.8,-,N/A,,Clear,220,2013-08-30 19:35:00
2:55 PM,98.4,64.4,33,29.87,10.0,WSW,6.9,-,N/A,,Clear,240,2013-08-30 19:55:00
3:15 PM,99.1,63.7,31,29.86,10.0,SW,11.5,16.1,N/A,,Clear,220,2013-08-30 20:15:00
3:35 PM,99.1,63.5,31,29.86,10.0,SW,10.4,16.1,N/A,,Clear,220,2013-08-30 20:35:00
3:55 PM,99.5,64.6,32,29.85,10.0,SW,9.2,-,N/A,,Clear,230,2013-08-30 20:55:00
4:15 PM,99.7,63.7,31,29.85,10.0,WSW,10.4,-,N/A,,Clear,250,2013-08-30 21:15:00
4:35 PM,99.5,63.7,31,29.85,10.0,WSW,11.5,-,N/A,,Clear,250,2013-08-30 21:35:00
4:55 PM,98.6,65.8,34,29.84,10.0,WSW,9.2,-,N/A,,Clear,240,2013-08-30 21:55:00
5:15 PM,98.6,66.6,35,29.84,10.0,West,10.4,-,N/A,,Clear,280,2013-08-30 22:15:00
5:35 PM,97.7,66.6,36,29.84,10.0,WNW,12.7,-,N/A,,Clear,300,2013-08-30 22:35:00
5:55 PM,97.0,66.2,36,29.84,10.0,WNW,9.2,-,N/A,,Clear,290,2013-08-30 22:55:00
6:15 PM,96.3,68.4,40,29.84,10.0,WNW,8.1,-,N/A,,Clear,290,2013-08-30 23:15:00
6:35 PM,95.5,67.6,40,29.84,10.0,WNW,5.8,-,N/A,,Clear,290,2013-08-30 23:35:00
6:55 PM,94.3,69.4,44,29.84,10.0,WNW,3.5,-,N/A,,Clear,290,2013-08-30 23:55:00
7:15 PM,92.7,71.4,50,29.83,7.0,WNW,3.5,-,N/A,,Clear,290,2013-08-31 00:15:00
7:35 PM,91.2,71.2,52,29.83,10.0,NNW,3.5,-,N/A,,Clear,330,2013-08-31 00:35:00
7:55 PM,89.1,70.7,54,29.83,10.0,NNW,3.5,-,N/A,,Clear,330,2013-08-31 00:55:00
8:15 PM,87.8,70.9,57,29.83,10.0,North,4.6,-,N/A,,Clear,360,2013-08-31 01:15:00
8:35 PM,85.6,71.6,63,29.84,10.0,North,4.6,-,N/A,,Clear,10,2013-08-31 01:35:00
8:55 PM,84.2,73.4,70,29.84,10.0,NNE,4.6,-,N/A,,Clear,20,2013-08-31 01:55:00
9:15 PM,83.5,75.6,77,29.84,10.0,NNE,5.8,-,N/A,,Clear,20,2013-08-31 02:15:00
9:35 PM,82.9,75.7,79,29.85,10.0,NNE,5.8,-,N/A,,Clear,20,2013-08-31 02:35:00
9:55 PM,82.4,75.7,80,29.85,10.0,North,4.6,-,N/A,,Clear,360,2013-08-31 02:55:00
10:15 PM,82.0,75.7,81,29.86,10.0,North,5.8,-,N/A,,Clear,10,2013-08-31 03:15:00
10:35 PM,81.5,75.9,83,29.86,10.0,North,6.9,-,N/A,,Clear,360,2013-08-31 03:35:00
10:55 PM,80.8,75.6,84,29.86,10.0,North,5.8,-,N/A,,Clear,350,2013-08-31 03:55:00
11:15 PM,80.4,75.6,85,29.87,10.0,North,5.8,-,N/A,,Clear,350,2013-08-31 04:15:00
11:35 PM,79.9,75.6,87,29.87,10.0,North,5.8,-,N/A,,Clear,350,2013-08-31 04:35:00
11:55 PM,79.3,75.6,88,29.87,10.0,North,5.8,-,N/A,,Clear,360,2013-08-31 04:55:00